Weather in Sug-Bazhy

Russia / Tyva Republic     51°39′19″N   94°51′21″E
temp.,
°C
wind,
m/s
gust,
m/s
humid.,
%
clouds,
%
prec.,
mm/h
press.,
hPa
HPBL,
m
31 july, sat
sat3101:00+15nne3254100 0.0 100823
04:00+14wnw2259100 0.0 101051
07:00+14wnw3466100 0.0 1012293
10:00+13wnw3385100 1.4 1015275
13:00+15w3279100 4.1 1015590
16:00+15wnw337996 0.2 1014588
19:00+13wnw2384100 0.6 1015220
22:00+13w1188100 0.1 101543
1 august, sun
sun101:00+12nw1289100 0.1 101482
04:00+12wnw1189100 0.0 101334
07:00+13wnw1282100 0.0 1012235
10:00+15nw2371100 0.0 1011656
13:00+18nnw2358100 0.3 10091180
16:00+20ene1346100 0.3 10071484
19:00+19nnw2447100 0.4 1007476
22:00+13ne2269100 0.0 100919
2 august, mon
mon201:00+12n227458 0.0 100914
04:00+10n2281100 0.0 100913
07:00+13nnw1168100 0.0 1010134
10:00+18w234913 0.0 10091183
13:00+21wnw453983 0.0 10072005
16:00+23nw553452 0.0 10072380
19:00+21nw45390 0.0 1007576
22:00+14nne33590 0.0 100922
3 august, tue
tue301:00+13ne22643 0.0 101018
04:00+11ene22685 0.0 101013
07:00+15e22575 0.0 1010141
10:00+20sw114383 0.0 1009775
13:00+24sw12345 0.0 10071314
16:00+26wsw23284 0.0 10041678
19:00+24e113625 0.0 1002147
22:00+15nnw61180100 0.8 1006401
4 august, wed
wed401:00+14nnw2392100 2.6 1008161
04:00+12s119597 1.3 100819
07:00+14s1187100 1.3 1009315
10:00+17w117098 0.0 1008707
13:00+21w2346100 0.0 10061423
16:00+23wnw3337100 0.0 10031745
19:00+21nw2342100 0.0 1003126
22:00+16sse1263100 0.1 100574